,Coso Junction,Coso Junction
,PM10_1HR,PM10_1HR
,UG/M3,UG/M3
Date,Value,Null Code
01-Dec-2023 00:00,18.1,
01-Dec-2023 01:00,8.4,
01-Dec-2023 02:00,10.1,
01-Dec-2023 03:00,6.6,
01-Dec-2023 04:00,8.4,
01-Dec-2023 05:00,8.8,
01-Dec-2023 06:00,9.8,
01-Dec-2023 07:00,9.6,
01-Dec-2023 08:00,10.3,
01-Dec-2023 09:00,11.3,
01-Dec-2023 10:00,8.3,
01-Dec-2023 11:00,5,
01-Dec-2023 12:00,6.2,
01-Dec-2023 13:00,4,
01-Dec-2023 14:00,5.9,
01-Dec-2023 15:00,12.2,
01-Dec-2023 16:00,11.2,
01-Dec-2023 17:00,15.7,
01-Dec-2023 18:00,9,
01-Dec-2023 19:00,8.8,
01-Dec-2023 20:00,8.9,
01-Dec-2023 21:00,7.4,
01-Dec-2023 22:00,9.1,
01-Dec-2023 23:00,7.6,
02-Dec-2023 00:00,12.5,
02-Dec-2023 01:00,7,
02-Dec-2023 02:00,6.5,
02-Dec-2023 03:00,7.2,
02-Dec-2023 04:00,6.3,
02-Dec-2023 05:00,7.5,
02-Dec-2023 06:00,6.8,
02-Dec-2023 07:00,7.8,
02-Dec-2023 08:00,7.7,
02-Dec-2023 09:00,5.7,
02-Dec-2023 10:00,1.9,
02-Dec-2023 11:00,4.5,
02-Dec-2023 12:00,5.9,
02-Dec-2023 13:00,6.8,
02-Dec-2023 14:00,8.6,
02-Dec-2023 15:00,8.5,
02-Dec-2023 16:00,12.4,
02-Dec-2023 17:00,11.9,
02-Dec-2023 18:00,6.6,
02-Dec-2023 19:00,8.7,
02-Dec-2023 20:00,7.7,
02-Dec-2023 21:00,7.7,
02-Dec-2023 22:00,8.4,
02-Dec-2023 23:00,8.5,
03-Dec-2023 00:00,6,
03-Dec-2023 01:00,8,
03-Dec-2023 02:00,8.4,
03-Dec-2023 03:00,6.3,
03-Dec-2023 04:00,6.1,
03-Dec-2023 05:00,8.1,
03-Dec-2023 06:00,7.2,
03-Dec-2023 07:00,8.9,
03-Dec-2023 08:00,9.5,
03-Dec-2023 09:00,5.6,
03-Dec-2023 10:00,3,
03-Dec-2023 11:00,4.1,
03-Dec-2023 12:00,5.8,
03-Dec-2023 13:00,7.8,
03-Dec-2023 14:00,7.3,
03-Dec-2023 15:00,10.3,
03-Dec-2023 16:00,9.5,
03-Dec-2023 17:00,14.2,
03-Dec-2023 18:00,12.4,
03-Dec-2023 19:00,9.9,
03-Dec-2023 20:00,6,
03-Dec-2023 21:00,8.9,
03-Dec-2023 22:00,7.8,
03-Dec-2023 23:00,6,
04-Dec-2023 00:00,6.8,
04-Dec-2023 01:00,8.1,
04-Dec-2023 02:00,5.9,
04-Dec-2023 03:00,5.6,
04-Dec-2023 04:00,6,
04-Dec-2023 05:00,9.2,
04-Dec-2023 06:00,8.1,
04-Dec-2023 07:00,9,
04-Dec-2023 08:00,7.3,
04-Dec-2023 09:00,5.9,
04-Dec-2023 10:00,2.2,
04-Dec-2023 11:00,4.5,
04-Dec-2023 12:00,7.8,
04-Dec-2023 13:00,5.7,
04-Dec-2023 14:00,6.1,
04-Dec-2023 15:00,8.8,
04-Dec-2023 16:00,10.2,
04-Dec-2023 17:00,16.2,
04-Dec-2023 18:00,12.6,
04-Dec-2023 19:00,9.2,
04-Dec-2023 20:00,9.8,
04-Dec-2023 21:00,7.3,
04-Dec-2023 22:00,6.5,
04-Dec-2023 23:00,5.7,
05-Dec-2023 00:00,7.4,
05-Dec-2023 01:00,9.3,
05-Dec-2023 02:00,7.4,
05-Dec-2023 03:00,5.3,
05-Dec-2023 04:00,5.1,
05-Dec-2023 05:00,7.7,
05-Dec-2023 06:00,8.3,
05-Dec-2023 07:00,6.9,
05-Dec-2023 08:00,7.1,
05-Dec-2023 09:00,6.2,
05-Dec-2023 10:00,2.4,
05-Dec-2023 11:00,3.4,
05-Dec-2023 12:00,2.6,
05-Dec-2023 13:00,3.2,
05-Dec-2023 14:00,4.7,
05-Dec-2023 15:00,16.4,
05-Dec-2023 16:00,10.1,
05-Dec-2023 17:00,12.1,
05-Dec-2023 18:00,10.7,
05-Dec-2023 19:00,10.3,
05-Dec-2023 20:00,4.9,
05-Dec-2023 21:00,8.3,
05-Dec-2023 22:00,8,
05-Dec-2023 23:00,4.7,
06-Dec-2023 00:00,5.3,
06-Dec-2023 01:00,3.2,
06-Dec-2023 02:00,8.1,
06-Dec-2023 03:00,5.4,
06-Dec-2023 04:00,4.1,
06-Dec-2023 05:00,9.7,
06-Dec-2023 06:00,7.5,
06-Dec-2023 07:00,5.1,
06-Dec-2023 08:00,5.1,
06-Dec-2023 09:00,2,
06-Dec-2023 10:00,4.5,
06-Dec-2023 11:00,5.3,
06-Dec-2023 12:00,8.1,
06-Dec-2023 13:00,7.5,
06-Dec-2023 14:00,8.7,
06-Dec-2023 15:00,13.9,
06-Dec-2023 16:00,17.8,
06-Dec-2023 17:00,18.6,
06-Dec-2023 18:00,35.9,
06-Dec-2023 19:00,29.6,
06-Dec-2023 20:00,34,
06-Dec-2023 21:00,7.8,
06-Dec-2023 22:00,7.8,
06-Dec-2023 23:00,15.4,
07-Dec-2023 00:00,1.9,
07-Dec-2023 01:00,10.1,
07-Dec-2023 02:00,3.2,
07-Dec-2023 03:00,14.3,
07-Dec-2023 04:00,20.6,
07-Dec-2023 05:00,35.1,
07-Dec-2023 06:00,27.9,
07-Dec-2023 07:00,20.1,
07-Dec-2023 08:00,20.3,
07-Dec-2023 09:00,,BL
07-Dec-2023 10:00,,BL
07-Dec-2023 11:00,,BL
07-Dec-2023 12:00,,BL
07-Dec-2023 13:00,12.7,
07-Dec-2023 14:00,24,
07-Dec-2023 15:00,14.1,
07-Dec-2023 16:00,22.6,
07-Dec-2023 17:00,20.3,
07-Dec-2023 18:00,18,
07-Dec-2023 19:00,11.5,
07-Dec-2023 20:00,13.1,
07-Dec-2023 21:00,10.5,
07-Dec-2023 22:00,13.6,
07-Dec-2023 23:00,7.5,
08-Dec-2023 00:00,11.6,
08-Dec-2023 01:00,10.3,
08-Dec-2023 02:00,10.3,
08-Dec-2023 03:00,11.1,
08-Dec-2023 04:00,6.1,
08-Dec-2023 05:00,6.2,
08-Dec-2023 06:00,13.7,
08-Dec-2023 07:00,13.4,
08-Dec-2023 08:00,8.3,
08-Dec-2023 09:00,5.3,
08-Dec-2023 10:00,3.4,
08-Dec-2023 11:00,1.3,
08-Dec-2023 12:00,3.9,
08-Dec-2023 13:00,4.4,
08-Dec-2023 14:00,9.2,
08-Dec-2023 15:00,10.3,
08-Dec-2023 16:00,11.5,
08-Dec-2023 17:00,12.2,
08-Dec-2023 18:00,6.8,
08-Dec-2023 19:00,10.5,
08-Dec-2023 20:00,6,
08-Dec-2023 21:00,9.3,
08-Dec-2023 22:00,8,
08-Dec-2023 23:00,6.9,
09-Dec-2023 00:00,7.7,
09-Dec-2023 01:00,6.3,
09-Dec-2023 02:00,5.9,
09-Dec-2023 03:00,6.5,
09-Dec-2023 04:00,6.9,
09-Dec-2023 05:00,7.7,
09-Dec-2023 06:00,6.4,
09-Dec-2023 07:00,7.5,
09-Dec-2023 08:00,8.2,
09-Dec-2023 09:00,5.3,
09-Dec-2023 10:00,3.8,
09-Dec-2023 11:00,1.7,
09-Dec-2023 12:00,2.4,
09-Dec-2023 13:00,3.4,
09-Dec-2023 14:00,2.6,
09-Dec-2023 15:00,5.7,
09-Dec-2023 16:00,10.9,
09-Dec-2023 17:00,10.1,
09-Dec-2023 18:00,5.2,
09-Dec-2023 19:00,6.1,
09-Dec-2023 20:00,5.9,
09-Dec-2023 21:00,6.2,
09-Dec-2023 22:00,5.4,
09-Dec-2023 23:00,6,
10-Dec-2023 00:00,4.7,
10-Dec-2023 01:00,5,
10-Dec-2023 02:00,4.6,
10-Dec-2023 03:00,6,
10-Dec-2023 04:00,5.7,
10-Dec-2023 05:00,4.7,
10-Dec-2023 06:00,16.5,
10-Dec-2023 07:00,5.6,
10-Dec-2023 08:00,6.5,
10-Dec-2023 09:00,4.2,
10-Dec-2023 10:00,2.6,
10-Dec-2023 11:00,1.9,
10-Dec-2023 12:00,2.9,
10-Dec-2023 13:00,3.7,
10-Dec-2023 14:00,5.3,
10-Dec-2023 15:00,6.1,
10-Dec-2023 16:00,8.9,
10-Dec-2023 17:00,11.8,
10-Dec-2023 18:00,6.6,
10-Dec-2023 19:00,7.3,
10-Dec-2023 20:00,7,
10-Dec-2023 21:00,7,
10-Dec-2023 22:00,8,
10-Dec-2023 23:00,6.2,
11-Dec-2023 00:00,5.5,
11-Dec-2023 01:00,6.3,
11-Dec-2023 02:00,5,
11-Dec-2023 03:00,5.5,
11-Dec-2023 04:00,5.3,
11-Dec-2023 05:00,7.3,
11-Dec-2023 06:00,6.5,
11-Dec-2023 07:00,8.2,
11-Dec-2023 08:00,7.5,
11-Dec-2023 09:00,8.5,
11-Dec-2023 10:00,5.5,
11-Dec-2023 11:00,2.3,
11-Dec-2023 12:00,4.1,
11-Dec-2023 13:00,6.9,
11-Dec-2023 14:00,5.1,
11-Dec-2023 15:00,6.1,
11-Dec-2023 16:00,11.4,
11-Dec-2023 17:00,12.8,
11-Dec-2023 18:00,6.1,
11-Dec-2023 19:00,4.7,
11-Dec-2023 20:00,5.3,
11-Dec-2023 21:00,5.3,
11-Dec-2023 22:00,6.2,
11-Dec-2023 23:00,5.4,
12-Dec-2023 00:00,6.6,
12-Dec-2023 01:00,7,
12-Dec-2023 02:00,7.2,
12-Dec-2023 03:00,6,
12-Dec-2023 04:00,7.6,
12-Dec-2023 05:00,7.6,
12-Dec-2023 06:00,10.8,
12-Dec-2023 07:00,9.7,
12-Dec-2023 08:00,6.8,
12-Dec-2023 09:00,6.4,
12-Dec-2023 10:00,3.2,
12-Dec-2023 11:00,3.3,
12-Dec-2023 12:00,5.4,
12-Dec-2023 13:00,9.4,
12-Dec-2023 14:00,12.2,
12-Dec-2023 15:00,11.3,
12-Dec-2023 16:00,11.8,
12-Dec-2023 17:00,15.5,
12-Dec-2023 18:00,14.8,
12-Dec-2023 19:00,13.6,
12-Dec-2023 20:00,9.4,
12-Dec-2023 21:00,24.9,
12-Dec-2023 22:00,23.7,
12-Dec-2023 23:00,23,
13-Dec-2023 00:00,8.7,
13-Dec-2023 01:00,12,
13-Dec-2023 02:00,8.4,
13-Dec-2023 03:00,6.9,
13-Dec-2023 04:00,6.9,
13-Dec-2023 05:00,8.5,
13-Dec-2023 06:00,7.9,
13-Dec-2023 07:00,6,
13-Dec-2023 08:00,5,
13-Dec-2023 09:00,14.9,
13-Dec-2023 10:00,11.9,
13-Dec-2023 11:00,10.4,
13-Dec-2023 12:00,12.3,
13-Dec-2023 13:00,11.5,
13-Dec-2023 14:00,9.6,
13-Dec-2023 15:00,9.1,
13-Dec-2023 16:00,11.3,
13-Dec-2023 17:00,16.2,
13-Dec-2023 18:00,10.3,
13-Dec-2023 19:00,5.7,
13-Dec-2023 20:00,6.9,
13-Dec-2023 21:00,8.2,
13-Dec-2023 22:00,6.8,
13-Dec-2023 23:00,8.9,
14-Dec-2023 00:00,40.5,
14-Dec-2023 01:00,20.2,
14-Dec-2023 02:00,10.4,
14-Dec-2023 03:00,6.4,
14-Dec-2023 04:00,5.6,
14-Dec-2023 05:00,7.4,
14-Dec-2023 06:00,6.4,
14-Dec-2023 07:00,6.5,
14-Dec-2023 08:00,6.3,
14-Dec-2023 09:00,,AX
14-Dec-2023 10:00,,AX
14-Dec-2023 11:00,,AX
14-Dec-2023 12:00,6.1,
14-Dec-2023 13:00,3.6,
14-Dec-2023 14:00,5.6,
14-Dec-2023 15:00,14.2,
14-Dec-2023 16:00,31.2,
14-Dec-2023 17:00,11.3,
14-Dec-2023 18:00,7.3,
14-Dec-2023 19:00,6,
14-Dec-2023 20:00,6.7,
14-Dec-2023 21:00,6.4,
14-Dec-2023 22:00,5.7,
14-Dec-2023 23:00,6.1,
15-Dec-2023 00:00,5.5,
15-Dec-2023 01:00,5.3,
15-Dec-2023 02:00,6,
15-Dec-2023 03:00,6,
15-Dec-2023 04:00,7.4,
15-Dec-2023 05:00,7.2,
15-Dec-2023 06:00,10,
15-Dec-2023 07:00,8.8,
15-Dec-2023 08:00,8.5,
15-Dec-2023 09:00,10.4,
15-Dec-2023 10:00,5.5,
15-Dec-2023 11:00,4.5,
15-Dec-2023 12:00,6.4,
15-Dec-2023 13:00,7,
15-Dec-2023 14:00,8.7,
15-Dec-2023 15:00,8.5,
15-Dec-2023 16:00,12.4,
15-Dec-2023 17:00,12.8,
15-Dec-2023 18:00,9.7,
15-Dec-2023 19:00,8.8,
15-Dec-2023 20:00,7.1,
15-Dec-2023 21:00,7.5,
15-Dec-2023 22:00,7.8,
15-Dec-2023 23:00,7,
16-Dec-2023 00:00,8.9,
16-Dec-2023 01:00,13.8,
16-Dec-2023 02:00,7.7,
16-Dec-2023 03:00,8.9,
16-Dec-2023 04:00,8.8,
16-Dec-2023 05:00,13.9,
16-Dec-2023 06:00,13.4,
16-Dec-2023 07:00,13.9,
16-Dec-2023 08:00,12.4,
16-Dec-2023 09:00,8.7,
16-Dec-2023 10:00,4.5,
16-Dec-2023 11:00,5.6,
16-Dec-2023 12:00,7.2,
16-Dec-2023 13:00,5,
16-Dec-2023 14:00,6.7,
16-Dec-2023 15:00,8.1,
16-Dec-2023 16:00,11.4,
16-Dec-2023 17:00,12.2,
16-Dec-2023 18:00,11.3,
16-Dec-2023 19:00,9.9,
16-Dec-2023 20:00,8.7,
16-Dec-2023 21:00,9.7,
16-Dec-2023 22:00,7.1,
16-Dec-2023 23:00,10,
17-Dec-2023 00:00,12,
17-Dec-2023 01:00,9,
17-Dec-2023 02:00,7.7,
17-Dec-2023 03:00,6.1,
17-Dec-2023 04:00,8.7,
17-Dec-2023 05:00,6.9,
17-Dec-2023 06:00,8.2,
17-Dec-2023 07:00,7.5,
17-Dec-2023 08:00,9.6,
17-Dec-2023 09:00,6,
17-Dec-2023 10:00,3.4,
17-Dec-2023 11:00,0.3,
17-Dec-2023 12:00,5.2,
17-Dec-2023 13:00,5.8,
17-Dec-2023 14:00,5.5,
17-Dec-2023 15:00,9.2,
17-Dec-2023 16:00,11,
17-Dec-2023 17:00,7.5,
17-Dec-2023 18:00,9.5,
17-Dec-2023 19:00,7.7,
17-Dec-2023 20:00,7.2,
17-Dec-2023 21:00,5.5,
17-Dec-2023 22:00,11.8,
17-Dec-2023 23:00,6.8,
18-Dec-2023 00:00,3.4,
18-Dec-2023 01:00,7.5,
18-Dec-2023 02:00,8.2,
18-Dec-2023 03:00,6.7,
18-Dec-2023 04:00,6,
18-Dec-2023 05:00,15.9,
18-Dec-2023 06:00,5.3,
18-Dec-2023 07:00,11.4,
18-Dec-2023 08:00,4.9,
18-Dec-2023 09:00,7.2,
18-Dec-2023 10:00,6,
18-Dec-2023 11:00,8.1,
18-Dec-2023 12:00,6.1,
18-Dec-2023 13:00,9.2,
18-Dec-2023 14:00,8.2,
18-Dec-2023 15:00,10.9,
18-Dec-2023 16:00,13,
18-Dec-2023 17:00,20.4,
18-Dec-2023 18:00,19.4,
18-Dec-2023 19:00,15.4,
18-Dec-2023 20:00,17.6,
18-Dec-2023 21:00,22,
18-Dec-2023 22:00,18.1,
18-Dec-2023 23:00,15.2,
19-Dec-2023 00:00,10.7,
19-Dec-2023 01:00,13.8,
19-Dec-2023 02:00,7.8,
19-Dec-2023 03:00,6.4,
19-Dec-2023 04:00,8.1,
19-Dec-2023 05:00,6.5,
19-Dec-2023 06:00,21.8,
19-Dec-2023 07:00,9.5,
19-Dec-2023 08:00,10.3,
19-Dec-2023 09:00,7.4,
19-Dec-2023 10:00,6.7,
19-Dec-2023 11:00,4.3,
19-Dec-2023 12:00,3.8,
19-Dec-2023 13:00,5.8,
19-Dec-2023 14:00,9.6,
19-Dec-2023 15:00,9,
19-Dec-2023 16:00,6.6,
19-Dec-2023 17:00,8.8,
19-Dec-2023 18:00,6.5,
19-Dec-2023 19:00,7.7,
19-Dec-2023 20:00,6.2,
19-Dec-2023 21:00,6.2,
19-Dec-2023 22:00,11.8,
19-Dec-2023 23:00,19.3,
20-Dec-2023 00:00,-6.1,
20-Dec-2023 01:00,9,
20-Dec-2023 02:00,8.5,
20-Dec-2023 03:00,7.8,
20-Dec-2023 04:00,6.4,
20-Dec-2023 05:00,7.9,
20-Dec-2023 06:00,6.6,
20-Dec-2023 07:00,7.5,
20-Dec-2023 08:00,8.2,
20-Dec-2023 09:00,6.2,
20-Dec-2023 10:00,2.1,
20-Dec-2023 11:00,0.7,
20-Dec-2023 12:00,-0.4,
20-Dec-2023 13:00,3.4,
20-Dec-2023 14:00,6.6,
20-Dec-2023 15:00,5.5,
20-Dec-2023 16:00,6.3,
20-Dec-2023 17:00,4.4,
20-Dec-2023 18:00,2.9,
20-Dec-2023 19:00,6.9,
20-Dec-2023 20:00,10.9,
20-Dec-2023 21:00,8.3,
20-Dec-2023 22:00,5.7,
20-Dec-2023 23:00,3.7,
21-Dec-2023 00:00,3.6,
21-Dec-2023 01:00,4.1,
21-Dec-2023 02:00,2.6,
21-Dec-2023 03:00,3.4,
21-Dec-2023 04:00,3.9,
21-Dec-2023 05:00,4.8,
21-Dec-2023 06:00,3.8,
21-Dec-2023 07:00,2.2,
21-Dec-2023 08:00,5.9,
21-Dec-2023 09:00,4.2,
21-Dec-2023 10:00,1.3,
21-Dec-2023 11:00,1.5,
21-Dec-2023 12:00,1.8,
21-Dec-2023 13:00,4,
21-Dec-2023 14:00,2.4,
21-Dec-2023 15:00,4.4,
21-Dec-2023 16:00,6.9,
21-Dec-2023 17:00,5.8,
21-Dec-2023 18:00,4.6,
21-Dec-2023 19:00,7.9,
21-Dec-2023 20:00,4.1,
21-Dec-2023 21:00,4.4,
21-Dec-2023 22:00,3.3,
21-Dec-2023 23:00,3.6,
22-Dec-2023 00:00,4,
22-Dec-2023 01:00,4.8,
22-Dec-2023 02:00,4.8,
22-Dec-2023 03:00,3.1,
22-Dec-2023 04:00,5.4,
22-Dec-2023 05:00,5.3,
22-Dec-2023 06:00,6.1,
22-Dec-2023 07:00,6.9,
22-Dec-2023 08:00,7.4,
22-Dec-2023 09:00,6.9,
22-Dec-2023 10:00,5.3,
22-Dec-2023 11:00,3.5,
22-Dec-2023 12:00,6.4,
22-Dec-2023 13:00,4.2,
22-Dec-2023 14:00,9.1,
22-Dec-2023 15:00,8.5,
22-Dec-2023 16:00,5,
22-Dec-2023 17:00,3.8,
22-Dec-2023 18:00,8,
22-Dec-2023 19:00,5.2,
22-Dec-2023 20:00,5.2,
22-Dec-2023 21:00,11.6,
22-Dec-2023 22:00,8.4,
22-Dec-2023 23:00,6.4,
23-Dec-2023 00:00,6.4,
23-Dec-2023 01:00,12.6,
23-Dec-2023 02:00,6.2,
23-Dec-2023 03:00,6.4,
23-Dec-2023 04:00,6.9,
23-Dec-2023 05:00,5.7,
23-Dec-2023 06:00,7.8,
23-Dec-2023 07:00,6.8,
23-Dec-2023 08:00,9.9,
23-Dec-2023 09:00,6,
23-Dec-2023 10:00,4.4,
23-Dec-2023 11:00,2,
23-Dec-2023 12:00,2.8,
23-Dec-2023 13:00,4.1,
23-Dec-2023 14:00,5.7,
23-Dec-2023 15:00,8.4,
23-Dec-2023 16:00,8.2,
23-Dec-2023 17:00,7.9,
23-Dec-2023 18:00,7.2,
23-Dec-2023 19:00,5.1,
23-Dec-2023 20:00,6.1,
23-Dec-2023 21:00,4,
23-Dec-2023 22:00,4,
23-Dec-2023 23:00,3.7,
24-Dec-2023 00:00,5.8,
24-Dec-2023 01:00,5.6,
24-Dec-2023 02:00,7.1,
24-Dec-2023 03:00,8.6,
24-Dec-2023 04:00,5.8,
24-Dec-2023 05:00,7.3,
24-Dec-2023 06:00,7.1,
24-Dec-2023 07:00,6.7,
24-Dec-2023 08:00,8.3,
24-Dec-2023 09:00,3.5,
24-Dec-2023 10:00,3.3,
24-Dec-2023 11:00,0,
24-Dec-2023 12:00,3.1,
24-Dec-2023 13:00,3.8,
24-Dec-2023 14:00,10,
24-Dec-2023 15:00,11.4,
24-Dec-2023 16:00,6.6,
24-Dec-2023 17:00,7.5,
24-Dec-2023 18:00,2.8,
24-Dec-2023 19:00,4.6,
24-Dec-2023 20:00,3.8,
24-Dec-2023 21:00,4.5,
24-Dec-2023 22:00,6,
24-Dec-2023 23:00,4.2,
25-Dec-2023 00:00,5.2,
25-Dec-2023 01:00,6.2,
25-Dec-2023 02:00,5.1,
25-Dec-2023 03:00,3.9,
25-Dec-2023 04:00,6.3,
25-Dec-2023 05:00,4.6,
25-Dec-2023 06:00,5.6,
25-Dec-2023 07:00,5.9,
25-Dec-2023 08:00,6.5,
25-Dec-2023 09:00,4.5,
25-Dec-2023 10:00,1.1,
25-Dec-2023 11:00,0.7,
25-Dec-2023 12:00,5.7,
25-Dec-2023 13:00,2.6,
25-Dec-2023 14:00,3.6,
25-Dec-2023 15:00,6.2,
25-Dec-2023 16:00,10.1,
25-Dec-2023 17:00,9.7,
25-Dec-2023 18:00,7.3,
25-Dec-2023 19:00,3.6,
25-Dec-2023 20:00,6.4,
25-Dec-2023 21:00,5.1,
25-Dec-2023 22:00,4.1,
25-Dec-2023 23:00,6.2,
26-Dec-2023 00:00,6.5,
26-Dec-2023 01:00,4.8,
26-Dec-2023 02:00,5.4,
26-Dec-2023 03:00,4.2,
26-Dec-2023 04:00,4.3,
26-Dec-2023 05:00,5.2,
26-Dec-2023 06:00,6.2,
26-Dec-2023 07:00,5.4,
26-Dec-2023 08:00,8.2,
26-Dec-2023 09:00,5.1,
26-Dec-2023 10:00,1.4,
26-Dec-2023 11:00,1.4,
26-Dec-2023 12:00,1.3,
26-Dec-2023 13:00,4.6,
26-Dec-2023 14:00,6.4,
26-Dec-2023 15:00,11.1,
26-Dec-2023 16:00,11.6,
26-Dec-2023 17:00,5.3,
26-Dec-2023 18:00,6.5,
26-Dec-2023 19:00,4.1,
26-Dec-2023 20:00,5.1,
26-Dec-2023 21:00,4.9,
26-Dec-2023 22:00,5.5,
26-Dec-2023 23:00,4.9,
27-Dec-2023 00:00,4.4,
27-Dec-2023 01:00,4.1,
27-Dec-2023 02:00,3.7,
27-Dec-2023 03:00,4.8,
27-Dec-2023 04:00,10.3,
27-Dec-2023 05:00,3.3,
27-Dec-2023 06:00,7.1,
27-Dec-2023 07:00,5,
27-Dec-2023 08:00,8.5,
27-Dec-2023 09:00,4.8,
27-Dec-2023 10:00,2.1,
27-Dec-2023 11:00,5.1,
27-Dec-2023 12:00,3.2,
27-Dec-2023 13:00,6.1,
27-Dec-2023 14:00,6.5,
27-Dec-2023 15:00,9.5,
27-Dec-2023 16:00,16.2,
27-Dec-2023 17:00,16.2,
27-Dec-2023 18:00,8.4,
27-Dec-2023 19:00,5.8,
27-Dec-2023 20:00,5.7,
27-Dec-2023 21:00,8.1,
27-Dec-2023 22:00,6.7,
27-Dec-2023 23:00,6.3,
28-Dec-2023 00:00,4.5,
28-Dec-2023 01:00,6.3,
28-Dec-2023 02:00,5.2,
28-Dec-2023 03:00,6.2,
28-Dec-2023 04:00,3.6,
28-Dec-2023 05:00,6.3,
28-Dec-2023 06:00,6.2,
28-Dec-2023 07:00,6.3,
28-Dec-2023 08:00,,BA
28-Dec-2023 09:00,,BA
28-Dec-2023 10:00,,BA
28-Dec-2023 11:00,,BA
28-Dec-2023 12:00,,BA
28-Dec-2023 13:00,0.8,
28-Dec-2023 14:00,1.7,
28-Dec-2023 15:00,6,
28-Dec-2023 16:00,10.1,
28-Dec-2023 17:00,9.4,
28-Dec-2023 18:00,3.1,
28-Dec-2023 19:00,2.6,
28-Dec-2023 20:00,4,
28-Dec-2023 21:00,4.4,
28-Dec-2023 22:00,3.6,
28-Dec-2023 23:00,3.1,
29-Dec-2023 00:00,7.4,
29-Dec-2023 01:00,4.5,
29-Dec-2023 02:00,3.4,
29-Dec-2023 03:00,5.1,
29-Dec-2023 04:00,4.2,
29-Dec-2023 05:00,5.7,
29-Dec-2023 06:00,4,
29-Dec-2023 07:00,8.3,
29-Dec-2023 08:00,7.2,
29-Dec-2023 09:00,4.7,
29-Dec-2023 10:00,3.6,
29-Dec-2023 11:00,2,
29-Dec-2023 12:00,4.4,
29-Dec-2023 13:00,2.4,
29-Dec-2023 14:00,4,
29-Dec-2023 15:00,5,
29-Dec-2023 16:00,18.8,
29-Dec-2023 17:00,15.4,
29-Dec-2023 18:00,6.2,
29-Dec-2023 19:00,8.3,
29-Dec-2023 20:00,13.1,
29-Dec-2023 21:00,5.7,
29-Dec-2023 22:00,5.2,
29-Dec-2023 23:00,6.5,
30-Dec-2023 00:00,4.8,
30-Dec-2023 01:00,5.5,
30-Dec-2023 02:00,3.9,
30-Dec-2023 03:00,4.5,
30-Dec-2023 04:00,5.5,
30-Dec-2023 05:00,6.3,
30-Dec-2023 06:00,6.3,
30-Dec-2023 07:00,6.7,
30-Dec-2023 08:00,8.7,
30-Dec-2023 09:00,9.3,
30-Dec-2023 10:00,8.4,
30-Dec-2023 11:00,7.8,
30-Dec-2023 12:00,7,
30-Dec-2023 13:00,6.3,
30-Dec-2023 14:00,7.1,
30-Dec-2023 15:00,8.1,
30-Dec-2023 16:00,8.6,
30-Dec-2023 17:00,9.8,
30-Dec-2023 18:00,8.2,
30-Dec-2023 19:00,5.7,
30-Dec-2023 20:00,6,
30-Dec-2023 21:00,4.7,
30-Dec-2023 22:00,4.8,
30-Dec-2023 23:00,6.2,
31-Dec-2023 00:00,3.5,
31-Dec-2023 01:00,4.2,
31-Dec-2023 02:00,4,
31-Dec-2023 03:00,4.6,
31-Dec-2023 04:00,4.5,
31-Dec-2023 05:00,5.8,
31-Dec-2023 06:00,6.1,
31-Dec-2023 07:00,7.1,
31-Dec-2023 08:00,6.4,
31-Dec-2023 09:00,6.3,
31-Dec-2023 10:00,5,
31-Dec-2023 11:00,3.7,
31-Dec-2023 12:00,5,
31-Dec-2023 13:00,5,
31-Dec-2023 14:00,3.9,
31-Dec-2023 15:00,6.2,
31-Dec-2023 16:00,6.9,
31-Dec-2023 17:00,7.4,
31-Dec-2023 18:00,5.9,
31-Dec-2023 19:00,5.1,
31-Dec-2023 20:00,3.3,
31-Dec-2023 21:00,5.3,
31-Dec-2023 22:00,4.9,
31-Dec-2023 23:00,3.7,
